Location: Felsheim
(48.7267°N, 10.7386°E)
Time: 08:04:17
(UTC+00:00)

ALOS 2 - Pass Details

Date: 09 April 2020
Orbit: 630 x 632 km, 97.9° (Epoch: 02 June)

Event Time Altitude Azimuth Distance (km) Brightness Sun altitude
Exits shadow 22:37:06 29° 351° (N) 1,159 4.4 -32.5°
Drops below altitude 10° 22:39:19 10° 348° (NNW) 2,026 6.0 -32.6°
Sets 22:41:31 0° 348° (NNW) 2,939 7.1 -32.7°
